Список аэропортов
Фактическая погода:

16 декабря, 14:00
Температура: +18°C (+17.4*)
Ветер: западный 6 м/с
Давление: *765 мм
Без существ. явл.
Время (МСК)Темп. СВетерВлажностьДавлениеОблачностьОсадки
15:00+18ЮЗ, 6 м/с48%1021 гПаясно
16:00+19З, 7 м/с42%1020 гПаясно
17:00+20З, 6 м/с43%1020 гПас прояснениями
18:00+20З, 7 м/с45%1019 гПаоблачно
19:00+20З, 7 м/с49%1020 гПаоблачно
20:00+19З, 7 м/с50%1020 гПаоблачно
21:00+18З, 9 м/с48%1022 гПаоблачно
22:00+17З, 8 м/с49%1022 гПаоблачно
23:00+16З, 7 м/с50%1024 гПаоблачно
17 декабря
00:00+16З, 6 м/с50%1025 гПаоблачно
01:00+16З, 5 м/с50%1025 гПаоблачно
02:00+15З, 4 м/с51%1026 гПаоблачно
03:00+14З, 3 м/с54%1027 гПаоблачно
04:00+13З, 3 м/с58%1027 гПас прояснениями
05:00+12З, 3 м/с63%1027 гПамалооблачно
06:00+12З, 3 м/с66%1027 гПамалооблачно
07:00+11З, 4 м/с65%1027 гПаясно
08:00+11СЗ, 6 м/с61%1027 гПаясно
09:00+11СЗ, 8 м/с62%1027 гПаясно
10:00+11СЗ, 9 м/с61%1027 гПаясно
11:00+11СЗ, 9 м/с54%1028 гПаясно
12:00+13СЗ, 7 м/с44%1027 гПаясно
13:00+14С, 6 м/с38%1028 гПаясно
14:00+16С, 3 м/с34%1028 гПамалооблачно
15:00+16ЮВ, 3 м/с37%1028 гПас прояснениями
16:00+16ЮВ, 4 м/с42%1028 гПаясно
17:00+16ЮВ, 4 м/с43%1028 гПамалооблачно
18:00+16ЮВ, 3 м/с43%1028 гПаясно
19:00+15ЮВ, 3 м/с45%1028 гПамалооблачно
20:00+15ЮВ, 3 м/с50%1028 гПамалооблачно
21:00+14Ю, 2 м/с58%1029 гПамалооблачно
22:00+13ЮВ, 1 м/с64%1029 гПас прояснениями
23:00+13Ю, 1 м/с68%1029 гПамалооблачно
18 декабря
00:00+12Ю, 1 м/с72%1029 гПамалооблачно
01:00+12СЗ, 2 м/с72%1030 гПамалооблачно
02:00+11СЗ, 2 м/с78%1029 гПамалооблачно
03:00+11З, 1 м/с84%1028 гПамалооблачно
04:00+11С, 2 м/с86%1028 гПамалооблачно
05:00+10СЗ, 2 м/с88%1028 гПас прояснениями
06:00+10С, 3 м/с88%1027 гПамалооблачно
07:00+10С, 3 м/с90%1027 гПамалооблачно
08:00+10С, 3 м/с90%1027 гПас прояснениями
09:00+10СЗ, 3 м/с88%1026 гПаоблачно
10:00+10С, 3 м/с88%1026 гПаоблачно
11:00+11СЗ, 2 м/с87%1026 гПаоблачно
12:00+12СЗ, 2 м/с80%1026 гПаоблачно
13:00+14СЗ, 1 м/с70%1025 гПаоблачно
14:00+15ЮЗ, 1 м/с68%1024 гПаоблачно
15:00+15Ю, 1 м/с66%1024 гПаоблачно